Wausau, WI

4:35 AM CDT on October 22, 2017 (GMT -0500)
Wausau Downtown

Weather History for KAUW - March, 2013

Change the Weather History Date:

Saturday, March 16, 2013

  Actual Average Record
Temperature  
Mean Temperature 21 °F 30 °F  
Max Temperature 26 °F 39 °F 72 °F (2012)
Min Temperature 16 °F 20 °F -14 °F (1897)
Degree Days  
Heating Degree Days 44 35  
Month to date heating degree days 661 611  
Since 1 July heating degree days 6485 6747  
Cooling Degree Days 0 0  
Month to date cooling degree days 0 0  
Year to date cooling degree days 0 0  
Moisture  
Dew Point 12 °F    
Average Humidity 71    
Maximum Humidity 91    
Minimum Humidity 50    
Precipitation  
Precipitation 0.07 in 0.05 in 1.29 in (2016)
Month to date precipitation 1.32 0.81  
Year to date precipitation 4.47 2.75  
Snow  
Snow 1.30 in 0.30 in 5.00 in (1917)
Month to date snowfall 9.0 6.1  
Since 1 July snowfall 65.0 51.4  
Snow Depth 13.00 in    
Sea Level Pressure  
Sea Level Pressure 29.98 in    
Wind  
Wind Speed 7 mph (North)    
Max Wind Speed 17 mph    
Max Gust Speed 21 mph    
Visibility 7 miles    
Events Snow    
T = Trace of Precipitation, MM = Missing Value Source: NWS Daily Summary

Daily Weather History Graph

Daily Weather History Graph

Search for Another Location

Airport or City:

Trip Planner

Search our weather history database for the weather conditions in past years. The results will help you decide how hot, cold, wet, or windy it might be!

Date:

Astronomy

Mar. 16, 2013 Rise Set
Actual Time 7:08 AM CDT 7:06 PM CDT
Civil Twilight 6:39 AM CDT 7:35 PM CDT
Nautical Twilight 6:05 AM CDT 8:09 PM CDT
Astronomical Twilight 5:30 AM CDT 8:44 PM CDT
Moon 9:25 AM CDT (3/16) No Moon Set
Length of Visible Light 12h 56m
Length of Day
11h 57m
Waxing Crescent, 23% of the Moon is Illuminated
Mar 16
Waxing Crescent
Mar 19
First Quarter
Mar 27
Full
Apr 2
Last Quarter
Apr 10
New

Hourly Weather History & Observations

Time (CDT) Temp. Windchill Dew Point Humidity Pressure Visibility Wind Dir Wind Speed Gust Speed Precip Events Conditions
12:54 AM 21.0 °F 12.4 °F 18.0 °F 88% 29.92 in 1.2 mi East 6.9 mph - 0.01 in Snow Light Snow
1:03 AM 21.2 °F 8.3 °F 17.6 °F 86% 29.85 in 1.2 mi East 13.8 mph 20.7 mph 0.00 in Snow Light Snow
1:26 AM 21.2 °F 11.7 °F 17.6 °F 86% 29.85 in 3.0 mi East 8.1 mph - 0.00 in Snow Light Snow
1:51 AM 19.4 °F 10.4 °F 15.8 °F 86% 29.85 in 2.5 mi East 6.9 mph - 0.00 in Snow Light Snow
1:54 AM 19.9 °F 11.1 °F 17.1 °F 89% 29.91 in 1.8 mi East 6.9 mph - 0.00 in Snow Light Snow
2:16 AM 19.4 °F 7.9 °F 15.8 °F 86% 29.86 in 2.5 mi East 10.4 mph - 0.01 in Snow Light Snow
2:22 AM 19.4 °F 8.6 °F 15.8 °F 86% 29.86 in 5.0 mi ENE 9.2 mph - 0.01 in Snow Light Snow
2:36 AM 19.4 °F 7.9 °F 15.8 °F 86% 29.87 in 8.0 mi East 10.4 mph - 0.01 in Snow Light Snow
2:43 AM 19.4 °F 8.6 °F 15.8 °F 86% 29.86 in 6.0 mi ENE 9.2 mph - 0.01 in Snow Light Snow
2:54 AM 19.9 °F 9.3 °F 15.1 °F 81% 29.92 in 2.5 mi ENE 9.2 mph - 0.01 in Snow Light Snow
3:06 AM 19.4 °F 8.6 °F 14.0 °F 80% 29.87 in 4.0 mi NE 9.2 mph - 0.00 in Snow Light Snow
3:15 AM 19.4 °F 9.5 °F 12.2 °F 74% 29.87 in 8.0 mi ENE 8.1 mph - 0.00 in Snow Light Snow
3:54 AM 18.0 °F 6.9 °F 10.9 °F 74% 29.94 in 10.0 mi ENE 9.2 mph - 0.00 in   Overcast
4:54 AM 17.1 °F - 10.0 °F 74% 29.95 in 10.0 mi Calm Calm - N/A   Overcast
5:54 AM 17.1 °F 11.7 °F 10.0 °F 74% 29.96 in 10.0 mi Variable 3.5 mph - N/A   Overcast
6:54 AM 17.1 °F 10.0 °F 10.0 °F 74% 29.99 in 6.0 mi Variable 4.6 mph - 0.00 in Snow Light Snow
7:35 AM 17.6 °F 12.3 °F 10.4 °F 73% 29.94 in 2.5 mi Variable 3.5 mph - 0.00 in Snow Light Snow
7:47 AM 15.8 °F 8.6 °F 10.4 °F 79% 29.95 in 3.0 mi NNE 4.6 mph - 0.00 in Snow Light Snow
7:54 AM 16.0 °F 7.4 °F 10.0 °F 77% 30.02 in 3.0 mi North 5.8 mph - 0.00 in Snow Light Snow
8:54 AM 16.0 °F 6.3 °F 10.0 °F 77% 30.04 in 4.0 mi North 6.9 mph - 0.00 in Snow Light Snow
9:54 AM 18.0 °F 9.8 °F 10.0 °F 71% 30.06 in 6.0 mi NNE 5.8 mph - 0.00 in Snow Light Snow
10:54 AM 19.0 °F 12.3 °F 9.0 °F 65% 30.06 in 10.0 mi North 4.6 mph - 0.00 in   Overcast
11:54 AM 21.0 °F - 9.0 °F 60% 30.08 in 10.0 mi Calm Calm - 0.00 in   Clear
12:54 PM 21.9 °F 13.4 °F 9.0 °F 58% 30.07 in 10.0 mi WNW 6.9 mph - N/A   Clear
1:54 PM 23.0 °F 18.4 °F 10.0 °F 58% 30.06 in 10.0 mi West 3.5 mph - 0.00 in   Partly Cloudy
2:54 PM 24.1 °F 12.5 °F 10.9 °F 57% 30.05 in 10.0 mi West 12.7 mph - 0.00 in   Scattered Clouds
3:54 PM 24.1 °F 12.5 °F 12.0 °F 60% 30.05 in 10.0 mi West 12.7 mph - 0.00 in   Overcast
4:54 PM 25.0 °F 13.6 °F 12.0 °F 58% 30.04 in 10.0 mi West 12.7 mph - N/A   Overcast
5:54 PM 25.0 °F 13.6 °F 9.0 °F 51% 30.03 in 10.0 mi West 12.7 mph - N/A   Overcast
6:54 PM 23.0 °F 13.1 °F 10.0 °F 58% 30.02 in 10.0 mi West 9.2 mph - N/A   Clear
7:54 PM 21.9 °F 11.0 °F 9.0 °F 58% 30.06 in 10.0 mi West 10.4 mph - N/A   Clear
8:54 PM 19.9 °F 11.1 °F 8.1 °F 60% 30.11 in 10.0 mi WNW 6.9 mph - N/A   Partly Cloudy
9:54 PM 19.0 °F 9.0 °F 8.1 °F 62% 30.14 in 10.0 mi WNW 8.1 mph - N/A   Partly Cloudy
10:54 PM 17.1 °F 8.7 °F 7.0 °F 65% 30.15 in 10.0 mi WNW 5.8 mph - N/A   Clear
11:54 PM 18.0 °F 6.9 °F 6.1 °F 60% 30.16 in 10.0 mi NNW 9.2 mph - N/A   Clear